Willimantic, CT

7:37 PM EST on February 18, 2018 (GMT -0500)
Windham

Weather History for KIJD - February, 2014

Change the Weather History Date:

Tuesday, February 18, 2014

  Actual Average Record
Temperature  
Mean Temperature 16 °F -  
Max Temperature 30 °F 36 °F 62 °F (1981)
Min Temperature 3 °F 15 °F -12 °F (1979)
Degree Days  
Heating Degree Days 48    
Moisture  
Dew Point 17 °F    
Average Humidity 81    
Maximum Humidity 92    
Minimum Humidity 60    
Precipitation  
Precipitation 0.21 in - - ()
Sea Level Pressure  
Sea Level Pressure 30.09 in    
Wind  
Wind Speed 4 mph (NNE)    
Max Wind Speed 12 mph    
Max Gust Speed -    
Visibility 5 miles    
Events Fog , Snow    
Averages and records for this station are not official NWS values.
T = Trace of Precipitation, MM = Missing Value Source: NWS Daily Summary

Daily Weather History Graph

Daily Weather History Graph

Search for Another Location

Airport or City:

Trip Planner

Search our weather history database for the weather conditions in past years. The results will help you decide how hot, cold, wet, or windy it might be!

Date:

Astronomy

Feb. 18, 2014 Rise Set
Actual Time 6:40 AM EST 5:25 PM EST
Civil Twilight 6:11 AM EST 5:54 PM EST
Nautical Twilight 5:39 AM EST 6:26 PM EST
Astronomical Twilight 5:07 AM EST 6:58 PM EST
Moon 9:20 PM EST (2/18) 8:07 AM EST (2/18)
Length of Visible Light 11h 42m
Length of Day
10h 45m
Waning Gibbous, 87% of the Moon is Illuminated
Feb 18
Waning Gibbous
Feb 22
Last Quarter
Mar 1
New
Mar 8
First Quarter
Mar 16
Full

Hourly Weather History & Observations

Time (EST) Temp. Windchill Dew Point Humidity Pressure Visibility Wind Dir Wind Speed Gust Speed Precip Events Conditions
12:52 AM 3.9 °F - -2.9 °F 73% 30.36 in 10.0 mi Calm Calm - N/A   Clear
1:52 AM 5.0 °F - -2.0 °F 73% 30.36 in 10.0 mi Calm Calm - N/A   Clear
2:52 AM 7.0 °F - -0.9 °F 70% 30.35 in 10.0 mi Calm Calm - N/A   Clear
3:52 AM 9.0 °F 2.4 °F -0.9 °F 64% 30.30 in 10.0 mi North 3.5 mph - N/A   Scattered Clouds
4:52 AM 10.9 °F 4.7 °F 1.0 °F 64% 30.32 in 10.0 mi ENE 3.5 mph - N/A   Scattered Clouds
5:52 AM 10.9 °F 1.4 °F 1.9 °F 67% 30.27 in 10.0 mi NE 5.8 mph - N/A   Overcast
6:52 AM 12.9 °F - 3.0 °F 65% 30.24 in 10.0 mi Calm Calm - N/A   Mostly Cloudy
7:52 AM 18.0 °F - 6.1 °F 60% 30.26 in 10.0 mi Calm Calm - N/A   Overcast
8:17 AM 21.0 °F 14.6 °F 9.0 °F 60% 30.23 in 4.0 mi NNE 4.6 mph - 0.00 in Snow Light Snow
8:44 AM 21.0 °F 13.4 °F 12.0 °F 68% 30.19 in 4.0 mi NE 5.8 mph - 0.00 in Snow Light Snow
8:52 AM 23.0 °F 15.8 °F 14.0 °F 68% 30.20 in 4.0 mi NE 5.8 mph - 0.00 in Snow Light Snow
9:20 AM 24.1 °F 17.0 °F 16.0 °F 71% 30.17 in 2.5 mi East 5.8 mph - 0.00 in   Haze
9:31 AM 24.1 °F 19.7 °F 16.0 °F 71% 30.16 in 1.2 mi ENE 3.5 mph - 0.00 in   Haze
9:52 AM 25.0 °F - 19.0 °F 78% 30.17 in 1.2 mi Calm Calm - 0.00 in   Haze
10:52 AM 28.0 °F 22.8 °F 23.0 °F 81% 30.13 in 1.0 mi NE 4.6 mph - N/A   Haze
11:06 AM 28.0 °F 22.8 °F 24.1 °F 85% 30.11 in 0.8 mi NE 4.6 mph - N/A   Mist
11:24 AM 28.0 °F 21.7 °F 24.1 °F 85% 30.09 in 0.8 mi NNE 5.8 mph - 0.01 in Snow Light Snow
11:52 AM 28.9 °F 21.9 °F 25.0 °F 85% 30.08 in 0.2 mi ENE 6.9 mph - 0.03 in Fog , Snow Snow
12:03 PM 28.9 °F 21.9 °F 26.1 °F 89% 30.05 in 0.2 mi ENE 6.9 mph - 0.01 in Fog , Snow Snow
12:06 PM 28.9 °F 22.8 °F 26.1 °F 89% 30.04 in 0.5 mi ENE 5.8 mph - 0.01 in Fog , Snow Snow
12:20 PM 30.0 °F 24.1 °F 27.0 °F 88% 30.03 in 0.2 mi NE 5.8 mph - 0.02 in Fog , Snow Snow
12:52 PM 30.0 °F 22.4 °F 28.0 °F 92% 30.02 in 0.5 mi NNE 8.1 mph - 0.06 in Fog , Snow Snow
1:09 PM 28.9 °F 20.4 °F 27.0 °F 92% 29.99 in 0.5 mi NNE 9.2 mph - 0.02 in Fog , Snow Snow
1:19 PM 28.9 °F 19.8 °F 26.1 °F 89% 29.98 in 0.2 mi North 10.4 mph - 0.03 in Fog , Snow Heavy Snow
1:48 PM 28.4 °F 19.1 °F 24.8 °F 86% 29.96 in 0.5 mi North 10.4 mph - 0.06 in Fog , Snow Snow
1:52 PM 28.0 °F 19.3 °F 25.0 °F 88% 29.97 in 0.2 mi North 9.2 mph - 0.06 in Fog , Snow Heavy Snow
2:31 PM 27.0 °F 18.7 °F 24.1 °F 89% 29.95 in 0.5 mi North 8.1 mph - 0.05 in Fog , Snow Snow
2:48 PM 28.4 °F 20.4 °F 24.8 °F 86% 29.94 in 0.8 mi North 8.1 mph - 0.06 in Snow Light Snow
2:52 PM 28.0 °F 20.0 °F 25.0 °F 88% 29.96 in 0.8 mi North 8.1 mph - 0.06 in Snow Light Snow
3:18 PM 28.9 °F 19.2 °F 26.1 °F 89% 29.93 in 1.2 mi NNE 11.5 mph - 0.00 in Snow Light Snow
3:43 PM 30.0 °F 21.7 °F 26.1 °F 85% 29.92 in 3.0 mi NNE 9.2 mph - 0.00 in   Overcast
3:52 PM 30.0 °F 23.2 °F 26.1 °F 85% 29.93 in 8.0 mi NNE 6.9 mph - 0.00 in   Overcast
4:49 PM 30.2 °F 25.4 °F 26.6 °F 86% 29.94 in 10.0 mi NW 4.6 mph - N/A   Overcast
4:52 PM 30.9 °F 27.5 °F 26.1 °F 82% 29.95 in 10.0 mi WNW 3.5 mph - N/A   Overcast
5:52 PM 27.0 °F 23.0 °F 23.0 °F 85% 29.98 in 10.0 mi West 3.5 mph - N/A   Overcast
6:27 PM 26.1 °F 19.4 °F 21.0 °F 81% 29.98 in 10.0 mi West 5.8 mph - N/A   Mostly Cloudy
6:40 PM 25.0 °F 18.1 °F 21.0 °F 85% 29.99 in 10.0 mi West 5.8 mph - N/A   Mostly Cloudy
6:52 PM 25.0 °F 18.1 °F 21.0 °F 85% 30.01 in 10.0 mi West 5.8 mph - N/A   Mostly Cloudy
7:09 PM 24.1 °F - 21.0 °F 88% 30.00 in 10.0 mi Calm Calm - N/A   Mostly Cloudy
7:52 PM 21.0 °F 14.6 °F 19.0 °F 92% 30.03 in 8.0 mi WSW 4.6 mph - N/A   Clear
8:52 PM 19.0 °F - 16.0 °F 88% 30.04 in 8.0 mi Calm Calm - N/A   Partly Cloudy
9:52 PM 19.9 °F 12.1 °F 17.1 °F 89% 30.08 in 8.0 mi SW 5.8 mph - N/A   Clear
10:52 PM 16.0 °F - 12.9 °F 88% 30.07 in 6.0 mi Calm Calm - N/A   Clear
11:12 PM 12.9 °F - 10.0 °F 88% 30.07 in 2.0 mi Calm Calm - N/A   Clear
11:21 PM 15.1 °F - 10.9 °F 84% 30.07 in 7.0 mi Calm Calm - N/A   Clear
11:38 PM 12.9 °F - 9.0 °F 84% 30.06 in 2.5 mi Calm Calm - N/A   Partly Cloudy
11:52 PM 10.9 °F - 8.1 °F 88% 30.09 in 5.0 mi Calm Calm - N/A   Partly Cloudy